TimeCST,TemperatureF,Dew PointF,Humidity,Sea Level PressureIn,VisibilityMPH,Wind Direction,Wind SpeedMPH,Gust SpeedMPH,PrecipitationIn,Events,Conditions,WindDirDegrees,DateUTC
12:53 AM,37.9,26.1,62,30.05,10.0,West,9.2,-,N/A,,Clear,270,2013-02-11 06:53:00
1:53 AM,35.1,25.0,67,30.06,10.0,WSW,9.2,-,N/A,,Clear,250,2013-02-11 07:53:00
2:53 AM,36.0,25.0,64,30.06,10.0,WNW,10.4,-,N/A,,Clear,290,2013-02-11 08:53:00
3:53 AM,33.1,25.0,72,30.07,10.0,WNW,8.1,-,N/A,,Clear,290,2013-02-11 09:53:00
4:53 AM,33.1,25.0,72,30.10,10.0,WNW,6.9,-,N/A,,Clear,290,2013-02-11 10:53:00
5:53 AM,32.0,25.0,75,30.14,10.0,West,5.8,-,N/A,,Clear,260,2013-02-11 11:53:00
6:53 AM,30.0,24.1,79,30.17,10.0,WSW,5.8,-,N/A,,Clear,250,2013-02-11 12:53:00
7:53 AM,30.9,25.0,79,30.18,10.0,West,4.6,-,N/A,,Clear,260,2013-02-11 13:53:00
8:53 AM,35.1,25.0,67,30.20,10.0,WNW,10.4,-,N/A,,Clear,300,2013-02-11 14:53:00
9:53 AM,37.9,25.0,60,30.22,10.0,WNW,8.1,-,N/A,,Clear,300,2013-02-11 15:53:00
10:53 AM,39.2,24.8,56,30.21,10.0,WNW,8.1,-,N/A,,Clear,300,2013-02-11 16:53:00
11:53 AM,43.0,26.1,51,30.21,10.0,NNW,8.1,-,N/A,,Clear,330,2013-02-11 17:53:00
12:53 PM,45.0,26.1,48,30.19,10.0,Variable,5.8,-,N/A,,Clear,0,2013-02-11 18:53:00
1:53 PM,46.9,27.0,46,30.17,10.0,NW,5.8,-,N/A,,Clear,310,2013-02-11 19:53:00
2:53 PM,48.0,24.1,39,30.16,10.0,NW,4.6,-,N/A,,Clear,310,2013-02-11 20:53:00
3:53 PM,48.0,25.0,41,30.15,10.0,WNW,5.8,-,N/A,,Clear,300,2013-02-11 21:53:00
4:53 PM,46.9,24.1,41,30.14,10.0,NW,5.8,-,N/A,,Clear,320,2013-02-11 22:53:00
5:53 PM,44.1,25.0,47,30.14,10.0,Calm,Calm,-,N/A,,Clear,0,2013-02-11 23:53:00
6:53 PM,39.0,25.0,57,30.16,10.0,Calm,Calm,-,N/A,,Clear,0,2013-02-12 00:53:00
7:53 PM,37.9,27.0,65,30.17,10.0,Calm,Calm,-,N/A,,Clear,0,2013-02-12 01:53:00
8:53 PM,34.0,26.1,73,30.17,10.0,Calm,Calm,-,N/A,,Clear,0,2013-02-12 02:53:00
9:53 PM,32.0,26.1,79,30.18,10.0,Calm,Calm,-,N/A,,Clear,0,2013-02-12 03:53:00
10:53 PM,30.0,25.0,82,30.18,9.0,Calm,Calm,-,N/A,,Clear,0,2013-02-12 04:53:00
11:53 PM,30.9,26.1,82,30.19,9.0,Calm,Calm,-,N/A,,Clear,0,2013-02-12 05:53:00